Location: Whitin Observatory
(42.2950°N, 71.3033°W)
Time: 21:51:49
(UTC-04:00)

OTV 5 (USA 277) - Visible Passes

Search period start: 19 October 2019 00:00
Search period end: 29 October 2019 00:00
Orbit: 310 x 324 km, 54.5° (Epoch: 17 October)

Date Brightness Start Highest point End Pass type
(mag) Time Alt. Az. Time Alt. Az. Time Alt. Az.
19 Oct ? 05:23:09 39° NNE 05:23:23 40° NE 05:26:00 10° ESE visible
20 Oct ? 05:37:48 67° WSW 05:37:58 70° SW 05:40:40 10° SE visible
21 Oct ? 05:52:34 23° SW 05:52:34 23° SW 05:54:38 10° S visible
27 Oct ? 18:55:09 10° S 18:56:48 18° SE 18:56:48 18° SE visible
28 Oct ? 19:08:52 10° SW 19:11:24 51° SSE 19:11:24 51° SSE visible
